Tracking 22994 objects as of 8-May-2021
HD Live streaming from Space Station
objects crossing your sky now

COSMOS 2133

Track COSMOS 2133 now!
COSMOS 2133 is classified as:


NORAD ID: 21111
Int'l Code: 1991-010A
Perigee: 35,757.0 km
Apogee: 35,825.6 km
Inclination: 14.4 °
Period: 1,436.0 minutes
Semi major axis: 42162 km
RCS: 12.1 m2 (large)
Launch date: February 14, 1991
Source: Commonwealth of Independent States (former USSR) (CIS)
Launch site: TYURATAM MISSILE AND SPACE COMPLEX (TTMTR)
aabbcc
Your satellite tracking list
Your tracking list is empty




NASA's NSSDC Master Catalog

Two Line Element Set (TLE):
1 21111U 91010A   21127.91457455 -.00000081  00000-0  00000-0 0  9990
2 21111  14.4411 356.8762 0008127  91.8579 177.3087  1.00280542110723
Source of the keplerian elements: AFSPC